AAY3191 KSFB-KATW

Flight info

Callsign AAY3191
Flight time N/A
Altitude 36000
Route DCT WORMS DCT JEEMY DCT ACCHE DCT PAINN DCT SHRKS Q77 TEUFL/N0461F350 Q77 WIGVO DCT IRQ/N0464F360 J99 VXV DCT IIU J89 BAE DCT CORIR DCT
Aircraft A320/M-SDE3FGHIRWY/LB1

Departure

Time N/A
Airport Orlando Sanford International Airport (KSFB)

Arrival

Time 2026-05-08 02:47
Airport Appleton International Airport (KATW)
Time Latitude Longitude Altitude Speed Heading
2026-05-08 02:29 43.19996 -88.31049 26034 ft 363 kts 340°
2026-05-08 02:29 43.22446 -88.31770 25444 ft 361 kts 340°
2026-05-08 02:29 43.24896 -88.32507 24781 ft 361 kts 341°
2026-05-08 02:29 43.27309 -88.33240 24189 ft 360 kts 341°
2026-05-08 02:30 43.29757 -88.33986 23575 ft 360 kts 341°
2026-05-08 02:30 43.32205 -88.34735 22905 ft 360 kts 341°
2026-05-08 02:30 43.34638 -88.35483 22339 ft 357 kts 341°
2026-05-08 02:30 43.37051 -88.36226 21775 ft 355 kts 341°
2026-05-08 02:31 43.39451 -88.36968 21260 ft 352 kts 341°
2026-05-08 02:31 43.41828 -88.37707 20733 ft 349 kts 341°
2026-05-08 02:31 43.44160 -88.38433 20271 ft 347 kts 341°
2026-05-08 02:31 43.46504 -88.39160 19788 ft 344 kts 341°
2026-05-08 02:32 43.48826 -88.39879 19320 ft 341 kts 341°
2026-05-08 02:32 43.51131 -88.40594 18870 ft 338 kts 341°
2026-05-08 02:32 43.53414 -88.41302 18412 ft 335 kts 341°
2026-05-08 02:32 43.55683 -88.42003 17955 ft 332 kts 341°
2026-05-08 02:33 43.57918 -88.42695 17531 ft 328 kts 341°
2026-05-08 02:33 43.60134 -88.43386 17070 ft 325 kts 341°
2026-05-08 02:33 43.62334 -88.44075 16642 ft 324 kts 341°
2026-05-08 02:33 43.64495 -88.44752 16153 ft 322 kts 341°
2026-05-08 02:34 43.66674 -88.45432 15684 ft 321 kts 341°
2026-05-08 02:34 43.68847 -88.46109 15206 ft 320 kts 341°
2026-05-08 02:34 43.71018 -88.46786 14729 ft 319 kts 340°
2026-05-08 02:34 43.73179 -88.47465 14227 ft 319 kts 341°
2026-05-08 02:35 43.75331 -88.48141 13754 ft 318 kts 340°
2026-05-08 02:35 43.77483 -88.48818 13221 ft 317 kts 341°
2026-05-08 02:35 43.79625 -88.49490 12727 ft 315 kts 341°
2026-05-08 02:35 43.81731 -88.50148 12228 ft 313 kts 341°
2026-05-08 02:36 43.83853 -88.50811 11733 ft 312 kts 342°
2026-05-08 02:36 43.85965 -88.51472 11218 ft 311 kts 342°
2026-05-08 02:36 43.88066 -88.52129 10761 ft 308 kts 342°
2026-05-08 02:36 43.90112 -88.52769 10627 ft 295 kts 342°
2026-05-08 02:37 43.92072 -88.53381 10495 ft 283 kts 342°
2026-05-08 02:37 43.93950 -88.53968 10290 ft 270 kts 342°
2026-05-08 02:37 43.95729 -88.54471 10129 ft 252 kts 349°
2026-05-08 02:37 43.97437 -88.54375 10010 ft 242 kts
2026-05-08 02:38 43.98986 -88.53617 9816 ft 239 kts 22°
2026-05-08 02:38 44.00325 -88.52222 9681 ft 246 kts 40°
2026-05-08 02:38 44.01343 -88.50269 9548 ft 253 kts 54°
2026-05-08 02:38 44.02239 -88.48164 9345 ft 253 kts 53°
2026-05-08 02:39 44.03124 -88.46088 9099 ft 244 kts 53°
2026-05-08 02:39 44.03981 -88.44081 8701 ft 241 kts 53°
2026-05-08 02:39 44.04838 -88.42085 8293 ft 239 kts 53°
2026-05-08 02:39 44.05678 -88.40124 7951 ft 233 kts 54°
2026-05-08 02:40 44.06476 -88.38257 7659 ft 223 kts 54°
2026-05-08 02:40 44.07247 -88.36449 7318 ft 217 kts 54°
2026-05-08 02:40 44.08013 -88.34657 7002 ft 214 kts 54°
2026-05-08 02:40 44.08795 -88.32920 6703 ft 209 kts 47°
2026-05-08 02:41 44.09794 -88.31507 6413 ft 202 kts 32°
2026-05-08 02:41 44.10979 -88.30514 6107 ft 197 kts 19°
2026-05-08 02:41 44.12210 -88.29683 5811 ft 196 kts 21°
2026-05-08 02:41 44.13412 -88.28860 5523 ft 195 kts 21°
2026-05-08 02:42 44.14639 -88.28017 5218 ft 194 kts 21°
2026-05-08 02:42 44.15878 -88.27535 4951 ft 184 kts 353°
2026-05-08 02:42 44.17045 -88.28084 4676 ft 177 kts 320°
2026-05-08 02:42 44.17786 -88.29408 4417 ft 176 kts 296°
2026-05-08 02:43 44.18326 -88.30939 4156 ft 177 kts 296°
2026-05-08 02:43 44.18868 -88.32477 3901 ft 177 kts 296°
2026-05-08 02:43 44.19407 -88.34002 3635 ft 173 kts 296°
2026-05-08 02:43 44.19899 -88.35398 3401 ft 163 kts 297°
2026-05-08 02:44 44.20393 -88.36796 3170 ft 159 kts 297°
2026-05-08 02:44 44.20841 -88.38062 2956 ft 158 kts 297°
2026-05-08 02:44 44.21275 -88.39291 2755 ft 157 kts 297°
2026-05-08 02:44 44.21756 -88.40655 2535 ft 157 kts 297°
2026-05-08 02:45 44.22195 -88.41898 2336 ft 144 kts 297°
2026-05-08 02:45 44.22607 -88.43063 2138 ft 138 kts 297°
2026-05-08 02:45 44.23028 -88.44255 1938 ft 136 kts 297°
2026-05-08 02:45 44.23448 -88.45442 1749 ft 137 kts 297°
2026-05-08 02:46 44.23869 -88.46636 1546 ft 137 kts 297°
2026-05-08 02:46 44.24294 -88.47840 1358 ft 139 kts 296°
2026-05-08 02:46 44.24720 -88.49031 1201 ft 140 kts 296°
2026-05-08 02:46 44.25155 -88.50251 1012 ft 140 kts 296°
2026-05-08 02:47 44.25572 -88.51425 904 ft 119 kts 296°
2026-05-08 02:47 44.25809 -88.52094 901 ft 43 kts 296°
2026-05-08 02:47 44.25923 -88.52419 903 ft 26 kts 294°
2026-05-08 02:47 44.26006 -88.52460 902 ft 13 kts 27°
2026-05-08 02:48 44.26029 -88.52368 903 ft 10 kts 106°
2026-05-08 02:48 44.26002 -88.52296 904 ft 9 kts 117°
2026-05-08 02:48 44.25964 -88.52189 906 ft 16 kts 115°
2026-05-08 02:48 44.25907 -88.52030 901 ft 20 kts 116°
2026-05-08 02:49 44.25843 -88.51854 899 ft 21 kts 115°
2026-05-08 02:49 44.25854 -88.51681 894 ft 15 kts 73°
2026-05-08 02:49 44.25882 -88.51542 889 ft 9 kts 74°
2026-05-08 02:49 44.25895 -88.51475 889 ft 6 kts 74°
2026-05-08 02:50 44.25907 -88.51410 889 ft 7 kts 80°
2026-05-08 02:50 44.25937 -88.51367 889 ft 7 kts
2026-05-08 02:50 44.25961 -88.51368 889 ft 0 kts 359°
2026-05-08 02:50 44.25966 -88.51367 888 ft 2 kts
2026-05-08 02:51 44.25969 -88.51367 888 ft 0 kts 360°